GFSWCAN_250_rhum_216.txt.gz
RH
100 100 100 100 100 100 87 90 73 68 63 69 72 49 44 40 49 35 32 24 19 22 26 26 24 21 17 14 15 14 15 17 18 19 23 22 22 20 20 18 14 12 12 13 13 14 15 14 14 15 13 10 10 11
100 100 100 100 96 99 82 85 70 60 77 64 65 69 61 43 40 30 26 21 23 23 24 21 16 16 15 16 17 17 17 16 17 19 18 17 18 19 15 18 16 14 11 12 12 15 13 14 12 14 13 12 13 13
100 100 100 100 100 100 91 61 80 75 73 74 74 70 58 36 34 32 28 24 22 20 17 18 20 21 16 16 14 12 12 11 13 13 12 14 13 11 13 14 13 11 9 10 10 9 10 13 12 11 10 10 11 12
100 100 100 100 100 81 81 86 75 76 58 65 62 68 43 33 30 30 25 22 17 14 14 26 26 24 14 12 9 8 9 10 11 14 12 9 9 9 10 10 9 8 11 10 9 9 11 12 9 9 8 7 8 9
100 100 98 99 86 91 94 77 59 62 58 55 49 40 30 26 28 25 20 16 15 15 15 18 18 13 12 13 11 10 10 10 10 10 9 8 8 9 8 8 8 9 8 8 9 9 9 7 7 7 9 8 7 8
100 100 100 93 88 91 70 66 58 49 51 29 31 27 29 27 24 18 15 18 18 16 12 11 12 12 12 11 10 10 10 9 8 7 7 6 6 6 6 5 5 5 5 6 6 6 6 6 6 6 7 8 7 8
99 98 97 93 76 62 59 56 53 48 32 32 32 30 27 24 17 16 17 17 15 11 9 10 10 10 11 9 8 8 7 6 5 5 5 4 5 6 5 5 4 4 4 4 5 5 4 5 4 4 5 5 5 5
99 89 80 66 57 68 58 48 50 34 32 27 29 26 22 17 18 18 16 14 10 9 8 8 9 9 8 6 5 5 5 5 5 5 5 5 5 6 6 6 5 4 4 5 6 6 6 5 4 4 5 4 4 4
82 74 61 62 61 64 60 56 41 32 41 28 27 20 17 20 19 16 13 11 10 8 8 8 7 7 6 5 5 5 5 5 6 5 5 5 5 5 5 5 6 6 5 4 4 5 6 6 4 4 4 5 4 4
75 67 54 63 66 56 48 34 32 30 34 26 18 17 21 19 14 12 12 11 9 9 8 6 5 6 5 5 5 5 5 6 5 5 5 4 5 6 6 6 6 5 6 7 6 4 7 6 5 4 5 4 5 4
66 51 47 40 36 40 38 25 26 24 21 17 19 21 16 12 12 12 12 9 9 8 6 5 5 5 5 5 5 5 4 5 5 6 6 6 6 6 6 7 7 6 6 6 6 6 7 6 5 5 5 5 5 5
44 45 35 33 41 42 33 26 22 18 17 19 19 14 11 11 12 12 9 8 7 6 5 5 5 5 5 5 5 6 6 7 8 9 9 8 8 9 8 8 7 7 7 7 7 6 7 6 5 5 5 6 6 5
46 44 32 38 43 31 24 19 17 19 18 15 12 10 11 12 11 9 8 6 6 6 6 5 6 6 6 7 7 8 10 10 10 10 9 10 12 10 11 11 10 9 8 9 9 7 7 5 5 5 5 6 7 5
38 34 33 33 27 19 18 20 20 16 12 12 11 11 12 11 10 8 6 6 6 6 7 8 7 6 6 8 10 11 11 11 12 12 13 15 13 15 13 12 8 7 8 8 8 8 6 6 5 6 6 7 7 5
31 27 30 20 19 21 20 17 14 12 12 12 11 13 12 10 8 6 6 7 7 8 8 8 7 7 8 10 10 10 12 13 13 15 15 16 20 14 13 11 8 10 9 8 8 8 6 6 6 7 7 7 7 6
25 21 20 20 20 16 14 12 12 12 12 12 12 12 11 8 6 7 7 8 8 9 8 9 9 9 10 11 11 12 13 15 20 20 17 21 18 19 18 15 12 12 11 11 9 8 8 7 7 8 8 8 8 7
20 20 17 14 13 13 12 12 12 12 12 13 12 11 8 6 7 7 8 9 9 10 10 11 12 12 12 13 13 15 18 18 20 18 23 27 32 25 20 18 17 15 14 11 11 11 9 7 8 10 9 9 9 9
15 14 14 14 13 13 12 12 13 13 13 12 11 8 6 7 7 8 9 9 10 12 12 13 13 14 14 14 15 17 20 21 24 26 37 41 30 24 19 18 18 18 15 12 12 12 12 12 12 11 10 10 10 11
14 14 13 12 12 12 13 14 13 12 11 9 7 7 7 8 7 10 10 11 12 13 14 14 15 16 16 17 18 21 27 31 36 37 49 38 35 25 25 21 21 22 18 15 13 12 13 13 14 13 13 13 13 13
13 13 12 12 13 14 14 12 12 10 8 7 7 8 8 7 10 11 12 13 15 17 16 16 17 17 19 20 23 28 34 45 51 53 45 37 33 30 31 30 29 23 21 19 16 16 18 15 15 16 16 16 16 17
12 12 12 14 14 12 11 11 9 6 6 8 9 7 7 10 11 12 13 15 17 19 18 17 18 19 26 31 35 43 51 59 65 62 53 47 39 39 38 40 35 28 28 25 23 23 24 25 21 20 23 23 22 24
13 12 12 12 11 10 9 8 7 6 7 9 8 7 9 11 12 14 15 17 20 21 19 18 19 26 32 40 41 40 53 58 65 61 56 48 43 38 45 50 50 42 36 32 30 26 29 33 30 28 28 30 31 32
11 11 10 9 8 7 7 7 8 8 8 7 8 9 10 12 12 14 17 19 21 23 21 19 21 29 32 36 41 41 53 60 66 64 66 64 53 43 50 55 57 50 48 44 46 47 43 40 38 38 42 41 40 43
8 7 7 7 6 7 7 8 9 7 6 8 10 10 11 13 13 16 18 20 23 25 22 20 25 28 34 40 46 53 60 58 68 69 68 73 72 59 58 61 60 53 51 54 53 51 46 46 51 53 52 52 50 49
6 6 6 7 7 8 8 8 7 6 7 9 11 11 12 12 14 16 18 20 24 26 23 20 23 31 37 43 55 56 62 65 72 77 69 70 77 76 61 57 61 63 60 59 61 70 65 54 52 53 53 52 49 45
6 7 7 7 8 8 7 6 7 8 8 9 11 11 11 13 15 17 19 21 25 26 23 22 24 32 37 44 57 58 62 64 70 76 74 70 73 77 79 73 69 67 65 67 67 69 70 66 60 58 57 53 50 46
8 8 8 7 6 6 6 8 8 9 9 10 11 11 12 14 15 17 19 22 26 26 23 23 28 32 36 45 51 58 61 64 71 76 75 75 74 70 69 72 75 69 68 68 68 72 73 64 56 51 48 47 45 41
8 7 6 6 6 7 7 8 9 9 10 10 11 12 12 14 15 17 19 21 24 25 23 24 28 32 34 40 45 54 61 63 64 69 71 71 73 73 72 70 67 63 63 63 64 59 56 55 57 55 51 48 45 43
6 6 6 7 8 8 9 9 10 10 11 12 12 12 12 14 16 17 18 21 23 23 21 22 26 33 40 44 48 48 48 54 66 74 74 68 64 64 62 63 64 65 64 61 57 54 52 51 50 48 45 43 40 37
7 8 8 8 9 9 9 10 11 11 12 12 12 12 13 14 16 16 17 18 20 20 20 22 25 29 38 47 50 50 51 57 61 63 65 63 60 61 62 62 61 58 57 56 55 55 54 52 47 43 41 40 40 41
9 9 9 10 10 10 11 11 11 11 11 11 11 11 12 14 15 16 16 16 18 19 20 22 24 28 32 37 44 50 53 48 50 54 58 59 58 54 52 50 50 51 52 50 47 48 50 50 49 46 43 38 32 27
9 10 10 11 11 12 12 11 10 10 10 10 10 11 12 13 14 15 15 15 16 18 20 22 23 25 26 28 30 32 32 34 35 36 37 38 36 35 36 40 43 43 42 43 44 43 40 37 34 32 31 28 25 23
10 10 11 12 12 12 11 10 10 10 10 11 11 11 12 12 13 13 14 14 16 17 19 21 22 22 23 23 24 24 24 25 26 26 26 26 25 27 30 32 33 31 31 31 30 29 28 28 27 25 22 21 22 21

GFSWCAN_250_rhum_219.txt.gz
RH
100 97 82 100 99 99 100 100 100 78 100 94 87 90 88 79 64 53 54 64 42 59 30 24 21 17 15 16 17 18 17 14 12 14 14 14 16 14 13 14 13 12 14 16 13 13 17 19 16 15 14 11 12 13
100 100 78 100 100 100 89 100 90 100 99 97 87 88 74 68 62 47 43 36 33 22 26 22 17 16 13 13 14 12 10 10 10 10 12 13 13 12 11 17 10 10 8 10 10 13 10 13 14 16 12 11 13 10
90 82 95 100 99 100 99 96 100 100 100 84 88 79 85 68 48 43 44 28 26 20 21 17 18 19 13 11 10 9 8 9 10 9 9 10 11 11 12 12 12 10 10 13 10 8 9 10 10 9 10 11 13 12
100 100 100 97 100 100 95 100 100 100 88 92 79 67 70 54 54 44 36 31 20 17 16 22 18 15 11 10 9 8 9 8 9 9 8 8 8 9 9 9 9 10 10 9 9 9 11 10 10 9 9 10 9 10
100 100 100 100 100 100 100 100 99 97 81 78 72 70 59 44 40 47 32 22 17 15 15 18 14 11 11 11 9 8 8 7 7 6 6 6 6 6 6 6 7 7 7 7 7 7 9 7 8 8 8 8 7 8
100 100 100 100 100 100 100 100 96 76 83 80 64 51 43 44 34 29 21 18 18 16 15 11 12 13 12 12 9 7 7 5 4 4 4 5 5 5 5 4 4 4 4 5 5 5 5 5 5 5 6 6 6 7
100 100 100 100 100 100 99 82 77 84 80 56 49 46 46 35 31 21 16 17 16 14 10 10 11 11 9 8 6 6 5 5 5 5 5 6 6 5 5 5 5 5 5 5 6 6 5 5 4 5 5 5 5 5
100 100 100 100 98 85 90 72 78 80 56 54 40 46 37 32 23 18 18 17 12 10 10 10 10 9 8 5 5 5 5 5 6 5 6 6 6 6 5 6 7 6 6 6 6 6 6 6 6 6 6 5 4 4
100 100 91 86 87 85 77 79 66 53 49 46 45 35 29 22 19 18 18 12 11 11 10 10 9 8 6 4 5 5 5 5 5 5 5 5 5 6 6 5 5 5 5 4 5 6 7 7 5 6 6 6 5 4
100 79 91 71 75 69 76 62 56 52 43 51 34 27 20 19 18 16 12 11 11 11 10 9 6 5 5 5 5 6 6 6 6 6 6 6 6 6 6 6 5 5 6 8 6 5 8 8 6 5 5 6 5 4
74 79 80 70 74 71 55 51 40 50 43 28 30 19 19 18 14 12 11 11 12 11 9 7 5 5 5 6 7 7 7 7 8 8 8 8 8 9 8 8 8 7 7 8 8 6 7 7 7 5 5 5 5 4
81 75 65 67 65 49 49 46 36 32 26 26 19 19 16 12 12 12 11 12 11 10 7 6 6 6 6 7 7 6 7 8 9 10 10 10 9 9 9 9 7 7 8 8 8 7 7 7 7 7 6 6 5 4
71 65 59 47 50 43 45 30 28 23 18 19 18 14 12 11 11 11 12 11 10 7 6 6 6 7 8 7 6 7 8 9 9 10 10 11 12 12 12 9 8 10 11 10 8 8 7 7 6 6 6 6 5 5
65 47 45 46 49 43 30 24 21 18 18 16 13 12 11 11 12 12 11 10 7 6 6 6 7 8 8 8 8 8 9 10 12 14 14 15 15 17 15 16 12 11 11 10 9 7 7 6 7 6 6 6 6 5
39 45 42 50 39 31 23 19 20 18 13 12 12 12 12 12 13 12 10 8 6 7 7 7 8 8 9 9 10 11 12 14 15 16 19 23 23 23 20 16 14 12 12 11 9 8 8 8 8 7 6 7 7 7
45 48 39 28 26 20 20 21 16 12 12 12 12 12 12 12 11 10 7 7 8 8 8 8 9 9 10 12 14 15 16 15 18 25 30 33 28 26 24 18 16 13 13 12 12 11 10 10 10 9 8 8 8 8
35 25 22 20 19 20 18 14 12 12 12 12 12 13 13 12 10 8 7 9 8 8 10 10 11 10 12 14 15 16 17 20 29 34 38 37 38 28 24 18 18 16 15 13 13 12 11 12 12 10 9 10 9 9
21 19 19 20 17 14 13 12 12 12 12 13 13 12 11 10 7 7 9 9 9 10 11 13 13 13 14 16 18 20 24 28 37 44 51 44 35 34 25 21 21 18 17 16 15 14 13 14 13 13 12 12 11 10
20 21 18 13 13 13 13 12 11 12 12 12 11 11 9 7 7 9 9 8 11 11 12 15 17 15 17 22 26 26 30 37 46 53 54 47 42 38 27 23 23 22 20 18 18 16 17 18 16 15 15 15 15 14
16 13 13 12 12 12 12 12 12 12 10 9 9 8 7 7 9 9 8 10 12 14 16 18 20 18 23 25 27 34 40 47 61 64 58 51 52 44 33 31 32 26 25 22 21 21 20 19 17 17 18 21 21 20
12 12 12 12 12 12 12 11 10 8 7 7 7 7 7 9 9 8 9 11 13 16 19 22 22 21 22 23 28 40 46 56 75 68 63 57 52 46 39 42 39 31 28 26 23 23 25 22 21 21 23 27 27 27
12 12 12 12 11 10 9 8 7 6 6 6 7 7 8 8 8 9 11 13 15 17 21 24 24 21 21 23 35 44 47 59 69 69 69 62 56 52 42 42 46 40 36 33 30 27 26 30 27 25 27 31 37 36
11 11 10 8 8 7 6 6 6 6 6 6 8 9 7 7 8 11 13 14 16 19 22 25 26 23 24 28 42 54 58 65 73 72 71 65 66 65 47 47 52 50 43 40 40 38 34 31 33 34 32 31 34 40
8 7 6 6 5 5 5 6 6 6 7 8 8 8 7 8 10 13 14 15 17 20 22 25 27 26 25 32 42 61 66 70 76 77 74 74 72 74 69 50 46 48 52 52 49 44 42 37 36 37 38 36 34 32
5 5 5 5 5 5 6 6 7 8 7 7 7 7 8 9 12 13 14 16 17 21 23 25 27 27 26 35 45 55 65 71 80 86 79 79 77 79 81 75 66 56 48 43 45 47 49 50 48 43 39 38 36 33
5 5 5 6 6 7 7 7 7 7 6 6 7 8 9 10 12 14 15 16 17 20 22 25 27 27 27 31 46 52 64 68 76 80 78 79 79 79 81 86 83 76 67 60 60 64 62 57 54 51 45 39 34 30
5 6 6 6 6 7 6 6 6 6 6 7 9 10 11 11 12 14 15 16 18 20 22 24 26 26 26 30 42 43 48 60 71 74 71 75 78 76 76 76 74 69 66 65 63 60 58 57 54 51 48 44 40 38
6 6 6 6 6 6 6 6 7 7 8 9 10 11 12 13 13 14 14 16 17 19 22 23 24 26 26 32 42 39 40 46 60 69 67 68 69 70 72 71 71 71 70 68 65 62 59 59 59 59 57 54 54 52
7 7 6 6 6 7 7 8 8 9 9 10 11 12 12 13 14 14 14 15 17 18 21 22 22 23 26 32 45 48 43 42 50 57 60 60 60 62 62 65 66 64 58 55 55 56 56 56 57 55 52 51 52 51
6 6 6 7 7 8 8 9 9 10 10 11 12 12 12 12 13 13 13 15 17 20 19 19 20 20 23 29 39 50 54 58 59 60 63 63 61 61 59 59 59 57 55 53 51 51 52 54 54 54 53 53 51 47
6 7 8 8 8 9 9 10 10 11 11 11 11 12 12 12 12 12 14 15 17 19 19 18 19 21 24 28 30 36 43 48 54 58 58 56 54 52 52 52 52 52 52 52 52 54 56 54 52 51 48 42 36 31
8 8 8 9 10 10 11 11 12 11 10 10 10 11 11 11 12 13 14 15 16 17 17 17 18 19 21 23 26 29 33 36 38 38 38 37 35 35 40 44 44 43 44 43 42 42 40 36 32 28 26 24 23 22
8 9 10 10 11 11 12 11 10 10 10 10 11 11 11 11 12 13 14 15 15 15 16 16 18 19 21 23 25 27 28 28 28 29 29 29 29 29 33 37 37 36 35 32 30 27 24 23 22 22 21 20 20 19

GFSWCAN_250_rhum_225.txt.gz
RH
100 100 100 100 100 99 80 82 100 100 100 96 96 91 100 99 92 100 75 92 83 94 83 76 51 36 28 15 14 11 9 8 9 9 9 8 8 8 8 6 6 6 6 7 8 9 11 10 10 8 7 10 17 15
100 100 100 100 95 99 100 100 100 100 88 96 88 100 91 95 100 86 87 84 98 69 76 52 40 30 17 15 11 9 8 8 8 8 7 8 7 6 4 4 4 4 4 5 5 5 8 9 10 8 8 9 10 11
100 90 99 100 100 100 100 100 100 88 99 97 97 98 100 98 88 97 82 82 69 57 76 49 34 29 16 13 9 9 9 8 7 7 7 6 4 3 4 4 5 4 4 4 4 4 5 7 9 9 8 9 10 10
100 100 100 100 100 100 100 100 95 100 95 79 88 100 97 100 92 76 84 69 47 47 47 43 33 18 15 10 9 8 9 8 7 6 5 4 4 4 5 5 5 5 4 4 4 4 4 5 6 8 10 10 10 10
87 99 100 100 100 100 100 100 99 90 79 95 100 96 100 90 79 84 75 57 53 45 37 34 21 15 12 9 9 9 9 7 6 4 4 4 4 5 5 5 4 4 4 5 4 4 4 4 5 6 7 8 9 9
100 100 100 100 100 100 100 90 85 85 82 100 100 91 89 77 78 65 51 57 59 42 32 32 16 13 9 8 8 9 8 6 4 4 4 4 5 5 6 6 5 4 4 4 5 6 6 4 4 5 4 5 6 7
100 100 100 94 96 100 89 95 89 99 100 98 94 87 72 72 73 63 49 52 34 32 28 16 15 10 9 8 8 8 6 4 5 5 5 5 6 6 6 6 6 5 5 5 5 4 4 5 4 5 5 4 4 4
100 100 100 100 100 92 95 98 95 89 85 96 96 75 73 82 60 55 48 35 33 32 16 15 11 10 9 9 9 7 4 5 5 5 6 6 6 6 6 7 7 7 6 6 6 5 4 4 4 5 5 4 4 4
100 100 100 100 100 100 94 81 96 94 94 99 81 78 65 69 46 46 43 39 37 18 15 11 9 9 9 9 8 5 5 5 5 6 6 6 6 7 8 9 9 8 7 8 9 8 6 4 4 4 4 4 4 4
100 100 100 94 96 98 99 99 90 100 98 91 82 69 60 51 36 35 36 36 20 17 12 9 9 9 9 8 6 5 6 6 7 7 7 7 8 9 9 8 8 7 7 8 8 8 8 6 6 5 5 6 5 5
100 100 97 98 85 91 82 88 95 99 89 84 78 75 45 33 33 37 27 18 17 13 10 9 9 9 8 7 6 6 6 7 8 9 9 8 9 10 10 10 10 10 10 10 9 7 7 8 7 6 6 6 6 6
100 93 94 96 86 85 88 84 88 80 83 78 79 51 37 30 36 20 16 15 12 10 10 10 9 8 7 6 6 7 7 8 10 10 10 10 11 11 11 12 13 10 9 8 10 10 9 9 10 10 8 5 6 6
94 93 94 79 87 67 81 70 69 80 71 63 48 35 30 37 23 17 16 12 10 10 10 8 8 7 6 6 7 8 9 10 10 11 12 13 12 12 11 12 13 14 12 9 8 8 8 9 9 9 8 7 7 8
98 89 80 75 72 85 66 76 78 56 40 43 36 32 37 23 16 16 11 10 10 10 8 7 6 6 6 8 8 10 10 12 12 13 14 13 12 12 15 15 12 12 12 11 10 10 9 9 10 9 8 8 7 7
82 71 65 82 84 75 75 50 48 36 43 34 32 36 25 17 15 11 10 10 10 8 6 6 6 7 8 8 10 12 13 13 14 15 13 15 14 18 14 14 15 17 15 14 13 12 12 10 10 10 10 9 9 9
68 76 72 70 67 74 51 48 38 34 32 36 32 20 18 14 10 10 10 9 7 5 5 6 6 8 9 8 12 14 17 15 15 15 15 16 20 14 16 14 16 17 15 14 14 14 14 12 13 13 12 12 11 11
72 71 66 67 51 57 39 36 35 35 36 20 17 16 12 10 10 10 8 6 5 5 6 6 8 10 8 9 14 17 17 17 19 17 21 21 22 19 18 17 18 19 18 16 18 18 18 16 18 15 14 14 14 14
66 68 75 50 53 36 38 34 34 28 18 17 14 11 10 10 10 8 6 5 5 6 6 8 10 10 8 11 18 20 20 19 20 22 29 27 26 22 22 20 21 22 22 20 23 26 22 22 19 17 18 16 16 16
59 42 46 40 36 38 36 26 19 17 15 11 10 10 10 9 7 5 5 6 6 6 8 9 9 10 11 15 20 23 21 22 26 35 39 34 32 29 28 27 25 23 27 27 28 28 29 25 21 20 20 19 19 19
43 42 41 38 38 35 20 17 15 12 10 10 11 10 8 6 5 5 5 6 7 8 9 9 9 11 14 18 24 24 22 26 33 42 45 42 35 34 32 35 39 36 34 33 32 30 31 28 25 24 23 22 23 23
43 38 39 28 18 17 15 12 11 11 11 10 8 6 5 5 5 6 6 7 8 9 9 9 10 13 17 22 25 24 26 30 38 49 53 47 41 36 38 43 45 45 36 37 39 33 31 31 28 27 27 27 26 25
39 31 18 16 15 12 10 11 11 10 8 6 5 5 5 5 6 6 7 8 8 8 8 9 11 15 19 24 27 27 30 36 43 50 60 55 53 44 47 50 58 58 49 40 43 43 39 32 31 29 27 30 30 29
18 16 16 12 11 11 11 11 9 7 6 5 5 5 6 6 6 7 7 7 8 8 9 11 13 16 19 23 28 28 29 37 47 51 60 60 57 55 57 58 58 72 74 68 55 52 56 52 46 39 36 34 32 31
15 12 11 12 12 11 9 7 6 5 5 5 5 5 6 6 6 6 6 7 7 9 10 12 14 16 20 24 28 30 31 36 46 50 55 61 66 60 65 67 66 68 70 70 69 68 59 54 55 54 50 48 41 37
12 12 12 12 10 8 6 5 5 5 5 5 5 6 6 5 6 6 7 8 8 10 12 13 14 17 20 24 28 29 33 38 45 49 51 57 66 64 66 68 70 69 67 69 70 68 67 63 56 52 51 53 55 56
13 12 10 8 7 6 6 5 5 5 6 6 6 5 5 6 7 8 8 8 10 11 13 13 14 17 20 23 26 30 29 36 40 46 48 55 62 67 69 71 74 75 73 73 72 71 70 70 73 71 66 62 60 59
10 8 7 8 8 7 6 5 6 6 6 5 6 6 7 7 8 9 9 10 11 12 13 14 15 16 18 21 24 29 31 32 36 44 50 53 60 64 65 68 69 69 73 75 75 74 72 71 69 68 69 68 64 59
8 8 8 7 6 5 5 6 6 6 5 6 7 7 7 8 9 9 10 10 11 12 13 14 15 16 17 20 23 27 30 30 31 36 43 52 56 60 62 64 68 70 72 74 74 74 74 73 72 72 72 69 62 56
8 8 7 6 5 5 6 6 6 6 6 7 7 8 8 9 9 10 11 11 12 12 13 14 14 15 17 19 21 25 26 26 27 32 37 42 54 58 58 60 64 68 71 73 73 73 73 72 70 67 61 58 54 51
7 6 6 6 6 6 6 6 6 7 7 8 8 9 9 10 10 9 10 10 11 11 12 13 14 15 16 18 21 24 23 23 24 27 33 35 38 50 56 58 60 62 66 68 70 71 68 63 61 57 52 48 44 39
6 5 6 6 6 6 6 6 7 7 8 8 9 9 9 8 8 9 9 9 10 10 11 12 13 14 16 18 20 22 21 20 22 27 34 37 33 36 46 53 58 61 61 61 63 63 64 62 56 53 50 45 41 38
6 6 6 6 6 6 6 7 7 8 8 10 9 8 8 8 9 9 9 9 10 10 11 12 13 15 15 15 16 17 18 19 22 26 29 32 33 31 33 41 49 52 52 53 54 54 51 46 40 38 35 33 31 29
7 6 6 7 7 7 7 8 8 9 10 10 9 8 8 9 9 9 9 10 10 11 12 12 13 12 13 14 14 16 18 18 20 22 24 24 26 26 27 29 32 34 35 35 35 33 31 29 29 29 28 26 24 22

GFSWCAN_250_rhum_228.txt.gz
RH
100 98 99 97 93 97 95 95 100 100 100 98 87 90 96 99 99 96 68 88 89 90 93 75 47 53 53 35 35 15 13 10 9 8 8 8 7 6 5 4 4 4 4 4 4 5 6 7 7 8 7 9 10 10
100 100 92 100 93 98 100 100 100 100 97 86 99 80 97 100 96 92 89 76 86 91 76 62 41 43 38 34 29 14 11 8 8 7 7 7 6 4 4 4 4 4 4 4 4 4 5 5 5 5 7 8 8 10
100 100 100 91 94 99 98 98 100 100 88 94 82 100 100 99 78 90 75 83 73 82 74 50 50 40 32 31 22 13 10 8 7 7 6 6 4 4 4 4 4 4 5 4 4 4 4 4 4 4 4 6 6 7
87 94 100 100 89 91 89 100 87 96 91 90 100 100 100 80 93 76 78 76 71 57 58 46 46 34 34 24 14 11 8 8 7 6 6 4 4 4 4 5 5 5 5 5 5 4 4 5 5 5 4 4 5 6
93 92 100 100 89 89 98 85 85 100 100 99 94 99 84 86 72 96 70 66 69 51 36 42 33 31 27 14 11 9 8 8 7 6 4 4 4 5 5 5 6 6 6 5 4 4 5 4 6 5 4 4 4 5
87 100 100 100 100 100 100 100 100 100 90 92 89 87 74 71 89 67 68 80 53 39 38 44 32 36 15 12 9 8 8 8 6 5 4 4 5 6 5 5 5 6 6 5 5 5 4 4 5 6 5 4 4 4
100 100 100 100 100 100 98 100 100 96 86 87 80 85 69 84 83 70 60 52 40 32 35 30 32 29 14 10 9 8 7 7 5 4 5 5 6 7 6 5 6 6 7 7 6 5 5 4 4 5 6 5 5 5
100 100 100 99 100 100 100 100 89 94 85 79 81 72 91 78 75 61 48 35 29 31 36 28 15 13 10 9 8 7 6 6 5 5 5 6 7 7 6 6 6 7 8 8 8 6 5 4 5 5 4 4 5 6
100 100 100 100 100 100 98 89 78 88 88 95 77 88 80 66 57 48 30 32 35 39 28 20 14 10 10 9 7 5 6 5 5 6 6 8 8 8 8 8 8 8 8 8 8 7 7 6 6 6 6 5 4 5
100 100 100 100 100 89 83 79 88 87 87 96 84 67 68 61 45 35 30 31 42 34 33 15 11 10 9 7 5 5 6 6 5 6 8 8 9 10 10 9 8 7 8 9 9 10 9 6 6 6 7 7 6 5
100 100 100 99 92 85 88 86 94 80 91 81 76 64 60 40 31 30 34 37 35 30 15 12 10 9 8 5 5 5 6 6 6 9 10 11 12 12 12 10 12 13 10 9 9 9 8 8 9 8 6 6 6 6
100 95 82 91 93 98 97 98 80 84 81 76 61 50 34 26 31 35 40 34 20 15 12 10 10 9 6 4 5 6 6 6 8 11 11 11 13 15 13 15 15 14 13 14 14 14 11 9 9 9 8 7 7 7
79 79 100 100 100 100 92 74 76 71 66 59 45 32 27 30 31 38 35 29 16 12 10 10 9 6 5 5 6 6 7 7 11 12 11 14 17 19 20 17 18 16 12 11 12 12 11 10 10 10 9 8 8 8
88 100 100 98 100 90 72 70 68 63 46 41 28 26 29 30 35 30 33 16 13 10 10 9 6 5 5 6 6 8 7 10 14 12 13 18 19 19 20 17 14 14 14 14 14 14 13 13 11 10 10 10 9 8
100 100 100 89 80 74 60 56 55 45 37 28 28 30 33 37 35 20 15 12 11 10 8 6 6 6 6 7 8 8 8 13 15 14 19 23 21 25 18 16 16 16 15 15 15 16 15 15 14 13 14 12 11 9
100 93 71 74 62 60 54 42 48 32 26 29 32 34 38 20 16 14 11 10 10 8 6 5 6 6 7 8 10 9 13 17 17 17 22 24 29 24 19 16 15 17 16 15 18 20 17 17 22 18 15 14 12 11
77 74 67 62 57 48 42 39 28 26 29 32 39 41 29 15 13 10 10 9 7 6 6 5 6 7 8 10 10 12 16 18 20 19 25 34 32 23 21 20 18 19 18 21 29 26 25 24 20 17 18 18 16 15
67 65 54 52 44 42 31 28 27 30 39 40 42 26 16 13 10 10 9 7 6 5 6 6 7 8 8 10 11 14 17 22 20 21 29 35 32 27 24 24 24 25 26 37 36 30 27 21 20 22 21 20 19 19
57 56 46 42 40 32 28 28 33 40 42 22 16 14 11 10 10 8 6 6 5 5 6 6 8 9 9 10 13 16 19 24 23 23 35 37 35 32 26 29 31 32 31 39 36 33 29 26 24 24 23 23 23 22
46 44 41 37 30 29 31 36 40 28 17 15 12 10 10 10 7 6 5 5 5 6 7 8 8 9 10 11 15 17 21 24 25 28 36 43 41 37 34 37 39 41 38 40 41 36 30 28 28 26 24 25 26 26
37 37 32 31 34 39 41 40 20 17 14 11 10 10 8 6 6 5 5 5 6 7 8 8 7 8 10 13 16 18 22 25 28 34 45 52 49 39 40 44 51 52 50 48 45 44 37 34 32 32 31 31 31 29
38 35 37 40 42 35 23 17 15 12 10 10 10 8 6 6 5 5 5 6 6 7 7 7 7 8 11 15 16 19 22 26 31 36 46 51 58 48 46 47 52 62 58 54 54 56 59 54 48 43 40 38 38 38
41 41 42 36 24 18 16 13 10 10 10 9 7 6 6 5 5 5 6 6 6 6 6 7 7 9 12 16 17 20 23 27 29 34 44 51 54 54 51 51 55 61 64 63 64 65 64 63 62 57 52 46 45 47
40 32 25 19 16 13 10 10 10 10 9 7 6 5 5 5 6 6 6 5 6 7 8 8 9 10 13 16 18 20 23 27 32 34 40 50 58 60 56 54 58 61 62 65 67 67 64 64 67 68 66 65 62 56
21 18 17 14 11 10 10 10 10 8 7 6 6 5 5 6 6 6 6 6 7 8 9 8 9 11 13 15 18 20 22 25 29 36 38 47 56 61 62 57 58 60 65 68 68 69 68 68 71 71 71 68 68 71
18 15 12 11 11 11 10 9 7 6 6 5 5 5 5 6 6 6 7 7 8 9 10 10 11 12 14 16 18 20 22 25 27 33 39 46 51 61 63 65 63 63 63 66 70 70 69 68 68 67 67 66 64 62
12 12 12 11 12 10 8 6 6 5 4 4 5 5 5 6 6 7 7 8 9 9 10 11 12 13 14 16 18 19 21 23 26 30 36 42 51 54 61 65 65 64 66 67 69 70 70 69 68 68 66 63 58 54
13 13 12 11 9 7 7 6 5 4 5 5 5 6 6 6 7 8 9 9 10 10 11 12 13 13 15 16 17 18 20 22 25 29 31 35 42 49 56 64 66 63 62 64 69 71 71 71 70 68 65 61 57 52
14 13 11 8 7 7 6 5 5 5 5 5 5 6 6 7 8 9 9 10 9 10 10 12 12 12 14 15 16 18 19 21 23 27 30 32 37 44 46 52 59 63 64 64 65 68 69 67 65 64 62 59 53 46
13 10 9 8 8 6 5 5 6 6 6 6 6 7 7 8 9 9 8 8 8 8 9 10 11 12 13 14 15 17 19 20 22 23 24 27 36 42 42 43 50 54 58 61 62 62 63 62 60 57 52 46 43 40
10 9 8 7 6 6 6 6 6 6 6 6 7 8 9 9 8 8 8 8 8 9 9 10 11 12 12 13 14 16 18 18 19 21 23 26 32 41 41 42 43 43 47 52 55 55 55 56 55 51 47 44 42 41
10 8 6 6 6 6 6 6 6 6 7 7 8 10 10 8 7 7 8 8 8 9 9 10 11 12 12 12 14 15 15 16 17 18 20 23 29 34 40 41 42 41 40 40 43 47 49 47 44 40 37 35 32 30
8 7 6 6 7 7 6 6 7 8 8 9 10 10 9 8 8 8 8 8 9 9 10 10 11 12 12 12 13 14 15 14 15 16 20 23 25 27 31 35 36 38 39 36 33 33 32 30 29 29 28 26 25 24

GFSWCAN_250_rhum_234.txt.gz
RH
100 100 100 100 100 100 100 100 90 78 100 94 97 100 100 92 68 72 92 74 72 55 58 48 59 61 58 63 54 49 35 27 18 12 8 7 6 4 3 3 4 4 4 4 5 4 4 5 5 5 5 5 5 4
100 100 100 100 100 100 98 100 93 92 97 100 100 100 100 78 98 84 66 80 70 57 58 48 58 57 54 53 49 36 30 22 14 9 8 6 4 3 3 4 4 4 5 5 5 5 6 5 5 5 5 5 6 5
100 100 100 100 100 100 98 100 91 100 100 100 99 95 100 100 100 81 80 69 50 58 54 50 58 54 52 48 40 32 22 18 11 8 7 4 3 4 4 4 4 5 6 6 5 5 6 6 6 6 6 6 5 5
100 100 100 100 100 100 84 92 93 98 100 100 100 100 100 100 96 88 84 68 75 69 54 61 59 58 58 41 35 25 20 13 9 8 6 4 4 4 4 4 6 6 7 6 5 5 6 6 6 6 7 6 5 5
100 100 100 100 94 88 98 100 98 100 100 100 100 100 100 100 80 79 82 75 75 59 62 64 64 47 44 36 25 19 15 10 8 7 4 4 4 5 5 6 7 7 8 8 7 6 7 7 7 7 6 6 5 5
100 100 98 100 100 100 92 97 100 100 100 100 100 100 97 83 79 97 68 78 61 66 61 60 51 53 40 29 21 15 11 9 7 5 4 4 5 5 5 7 8 8 8 8 7 7 6 7 7 8 8 6 5 4
100 100 100 100 91 83 98 100 100 100 100 100 100 91 94 84 97 84 78 58 60 58 65 58 51 45 31 23 18 12 9 8 6 4 5 5 6 6 7 8 8 10 8 7 6 6 7 6 7 7 8 7 6 5
98 88 86 81 81 98 100 100 100 100 100 100 93 97 91 96 100 88 58 59 57 64 50 56 40 34 24 20 13 10 9 6 5 5 5 6 6 6 8 8 8 11 15 14 12 8 6 6 6 8 9 8 7 6
89 85 98 100 100 100 100 100 100 100 99 93 99 98 100 100 89 57 64 64 61 52 58 39 36 28 21 15 11 9 7 5 5 5 6 7 7 8 9 8 7 8 9 13 14 14 12 10 8 8 8 8 8 7
100 100 100 100 100 100 100 100 100 100 100 93 97 100 96 90 71 64 67 57 55 56 42 34 28 21 16 12 10 8 6 5 5 6 8 8 7 9 10 8 8 9 10 11 12 11 11 10 9 7 8 8 8 7
100 100 100 100 100 100 100 100 100 100 95 98 96 90 86 72 67 69 54 52 50 42 35 28 21 18 13 10 9 7 6 5 6 7 9 8 10 11 9 10 14 14 12 11 11 12 11 11 10 8 9 9 9 8
100 100 100 100 100 100 100 100 100 96 91 89 90 83 65 70 58 57 57 52 44 36 28 21 19 13 10 10 7 6 6 6 7 9 9 9 12 13 11 12 15 14 12 15 15 16 16 13 12 11 10 9 9 9
100 100 100 100 100 100 100 99 100 100 94 76 80 78 64 61 61 59 54 43 33 28 22 18 13 10 10 9 6 6 6 6 8 10 10 12 14 12 11 19 16 13 14 17 19 19 18 18 18 18 17 15 13 11
100 100 100 100 100 100 100 94 100 97 90 86 88 79 70 61 61 50 46 33 28 22 18 13 11 10 9 7 6 6 6 8 9 10 11 14 16 13 16 20 17 15 22 25 21 25 26 23 23 23 20 16 14 12
100 100 100 100 100 100 100 96 99 88 79 76 85 75 62 59 45 52 34 28 22 17 13 10 10 9 7 7 6 6 7 9 10 10 13 17 16 15 25 22 19 20 25 23 29 31 29 26 25 22 19 17 17 14
100 100 100 100 100 100 100 84 82 91 94 74 67 69 62 49 48 36 25 20 15 12 10 10 9 7 7 6 6 7 8 10 10 11 14 21 18 21 28 27 23 25 28 32 34 34 31 31 29 23 22 24 22 18
100 100 100 100 99 90 84 88 100 83 74 68 63 55 50 49 33 24 18 14 12 10 11 10 7 6 6 6 7 8 9 10 11 12 17 23 22 29 33 31 26 26 41 38 37 38 33 29 25 30 30 27 23 20
98 93 85 97 91 90 96 90 82 82 67 54 52 48 43 30 23 17 14 12 11 10 10 7 6 5 6 6 7 8 8 9 11 13 19 25 30 36 37 36 30 34 41 37 39 38 33 36 40 36 30 26 24 23
100 100 96 94 90 92 80 84 70 61 56 51 48 37 27 22 17 14 12 11 10 10 7 6 5 5 6 7 7 8 8 9 12 15 21 27 37 42 40 41 33 37 41 41 44 38 40 42 40 38 38 36 34 31
100 98 92 94 86 76 73 58 53 49 46 40 31 28 21 16 14 12 11 10 9 7 6 5 5 6 7 7 7 8 8 10 12 17 22 28 41 47 43 44 35 41 43 40 46 45 45 46 42 41 45 39 36 38
86 81 80 69 61 63 59 61 48 40 39 29 28 18 16 14 12 11 10 8 7 5 5 5 6 6 7 8 8 9 10 11 13 18 22 26 39 51 51 48 40 40 48 51 52 49 45 44 46 46 49 46 40 39
79 71 65 63 64 61 50 48 42 35 26 26 18 16 14 11 10 10 8 6 5 4 5 5 6 7 8 9 9 10 10 12 14 18 22 27 34 51 63 58 49 43 45 50 56 55 53 48 46 47 47 45 41 39
70 79 79 68 61 55 47 39 31 27 26 20 17 13 11 10 10 8 6 5 4 5 5 6 7 8 8 9 10 10 11 12 15 18 22 26 34 46 58 65 57 52 50 52 55 59 61 58 55 52 50 48 46 46
85 80 76 62 47 42 35 28 30 24 19 16 13 11 10 10 8 7 5 5 5 6 6 6 7 8 9 10 11 12 12 12 16 19 22 25 30 40 55 60 65 64 57 57 60 55 57 61 60 57 56 55 52 50
68 58 46 41 40 38 36 32 25 19 15 12 11 11 10 9 7 5 5 5 6 6 6 7 8 9 10 10 11 12 12 13 16 19 22 25 29 37 50 59 64 71 71 63 63 60 57 58 61 61 59 57 55 54
48 50 49 45 45 43 33 25 19 14 12 11 11 10 9 7 5 5 6 6 5 6 7 7 9 10 10 11 12 12 13 14 16 18 22 24 28 33 43 55 64 69 72 72 73 71 67 62 56 54 53 52 50 49
56 51 49 46 42 32 22 17 13 12 11 11 10 9 7 6 6 6 5 5 6 7 8 9 9 8 9 10 11 12 14 15 16 18 21 24 26 29 36 46 53 58 68 73 69 68 69 68 64 62 58 52 48 46
54 53 44 36 26 20 15 13 12 12 11 9 9 7 6 6 6 5 6 7 7 8 9 8 8 8 8 9 10 12 13 14 16 18 20 22 24 27 31 37 42 50 57 65 68 65 61 60 60 59 57 56 54 50
55 43 30 22 17 14 14 12 12 12 10 9 8 6 6 6 6 6 7 8 9 9 8 7 8 8 8 9 10 11 12 13 15 17 18 18 20 23 26 29 34 43 50 54 58 59 58 56 55 53 53 52 50 47
30 22 19 16 15 14 13 12 12 10 10 8 6 6 6 6 6 8 8 9 10 8 8 8 8 8 8 9 10 10 11 12 14 15 16 18 19 20 22 24 27 33 40 46 50 53 55 56 54 53 50 47 45 45
18 17 15 15 15 14 13 12 12 11 9 6 6 7 6 6 8 8 9 10 9 8 8 8 8 8 8 8 10 10 11 11 12 13 14 16 18 18 20 22 24 29 32 37 42 46 50 51 51 50 49 49 50 48
16 15 16 15 14 15 13 13 11 10 7 7 7 7 7 8 9 10 10 9 8 8 8 8 8 8 9 9 9 10 10 11 12 13 13 14 15 17 18 19 20 22 26 32 36 38 39 41 42 40 40 44 43 40
15 16 15 15 15 13 13 12 9 7 8 7 7 8 9 9 9 10 11 10 9 9 9 9 9 9 9 9 10 10 10 10 11 11 12 12 12 14 16 17 18 20 24 28 30 31 32 34 33 33 34 31 29 27

GFSWCAN_250_rhum_237.txt.gz
RH
100 100 100 100 100 100 100 100 98 97 100 100 98 73 84 96 100 100 97 83 98 75 98 77 88 84 68 68 61 47 52 40 32 27 18 11 8 6 3 4 4 4 4 5 5 5 6 6 6 6 6 6 5 6
100 100 100 100 100 99 93 100 100 100 100 99 85 81 91 100 99 93 99 99 92 91 75 84 72 72 58 54 50 50 49 38 31 20 13 9 8 4 4 4 4 5 5 6 7 7 6 5 6 6 6 6 6 6
100 100 100 100 100 97 100 100 100 100 100 88 80 77 83 96 96 95 97 100 81 82 75 64 73 55 62 55 46 55 35 35 24 15 11 9 6 4 4 4 5 5 6 6 7 7 6 7 6 6 5 6 6 6
100 86 100 100 100 100 100 100 100 100 89 85 66 76 95 99 100 100 100 84 96 76 68 62 56 65 60 46 53 40 38 30 17 12 9 7 4 4 5 5 6 7 8 8 7 7 8 7 6 7 6 6 6 6
100 100 100 100 100 100 100 100 100 100 94 66 74 79 100 100 100 97 95 83 75 89 63 66 50 57 49 55 52 41 38 22 14 10 9 6 4 4 5 6 6 8 7 8 9 8 8 9 8 7 7 7 7 6
100 100 100 100 100 100 100 100 100 74 65 79 100 100 100 100 100 100 97 81 75 65 65 56 61 49 45 48 43 41 28 16 12 9 7 5 4 5 7 7 9 10 7 7 6 7 8 10 10 9 8 7 7 7
100 100 100 100 100 100 100 76 65 76 94 100 100 100 100 100 96 88 82 67 82 69 58 65 47 48 54 50 44 31 18 13 10 8 6 5 5 6 7 6 9 13 14 11 9 9 9 8 8 8 9 8 6 6
100 100 100 100 94 85 73 65 72 93 100 100 100 100 100 100 93 85 76 88 81 54 57 48 48 53 55 47 35 22 15 11 10 7 6 5 5 7 7 8 10 11 12 12 11 10 9 9 9 9 8 9 8 7
100 100 100 91 92 79 84 95 100 100 100 100 100 100 100 99 97 93 87 89 68 68 49 53 49 61 52 37 25 16 12 10 8 7 6 5 6 7 7 9 9 8 11 11 12 12 11 11 10 8 9 10 9 8
100 100 90 93 87 100 100 100 100 100 100 100 100 100 100 100 99 95 82 75 61 50 51 56 56 50 36 27 18 13 10 10 8 7 6 6 8 8 8 12 10 10 12 10 14 14 13 12 12 11 10 10 10 10
100 100 100 93 98 100 100 100 100 100 100 100 100 99 99 100 81 87 71 62 52 50 54 51 50 32 27 19 14 10 10 8 7 6 6 7 8 8 11 13 13 13 11 10 11 11 13 14 13 13 12 12 10 10
100 100 100 100 100 100 100 100 100 100 100 97 98 98 95 77 97 70 71 58 47 52 50 45 32 27 20 14 11 10 9 7 7 6 7 9 8 9 13 13 15 13 12 15 16 19 18 16 16 15 15 16 15 13
100 100 100 99 100 100 100 100 100 100 100 100 95 99 98 95 63 70 66 55 52 49 45 32 26 20 14 11 10 10 8 6 6 7 8 9 8 11 14 14 17 14 18 19 22 24 20 20 20 20 20 18 16 14
100 100 100 100 100 100 100 100 97 95 97 95 99 92 74 76 78 66 48 49 51 44 32 26 21 15 11 10 10 8 7 6 7 8 9 10 9 12 14 17 18 16 20 24 32 28 24 24 23 22 21 19 16 14
100 100 100 100 100 100 100 100 100 97 92 89 85 88 90 77 61 51 50 46 38 30 26 21 15 11 10 10 9 8 6 7 8 8 10 10 11 14 16 20 20 17 26 37 35 31 29 30 28 24 24 19 19 18
100 100 100 100 100 100 100 100 99 100 98 86 81 84 73 60 52 48 43 37 30 27 21 14 11 10 10 9 8 6 6 7 7 8 10 11 13 15 21 23 23 20 33 38 33 35 33 32 29 27 25 27 25 21
100 100 100 100 100 100 100 99 100 100 92 94 82 64 61 49 44 40 36 33 26 20 14 11 10 10 9 7 6 6 7 7 8 8 9 12 15 17 25 26 28 24 34 38 36 38 33 31 31 34 38 30 27 23
100 100 100 100 100 100 100 100 98 88 79 68 60 50 43 45 38 41 33 26 20 14 11 10 10 9 7 5 5 6 7 7 9 9 10 13 17 21 29 28 33 29 33 39 39 39 40 37 39 40 36 32 32 32
100 100 100 100 100 95 94 88 77 59 56 52 44 48 44 39 44 33 26 20 13 11 10 10 8 6 5 6 6 7 8 8 10 10 10 15 19 21 29 31 35 32 34 40 42 39 41 43 45 40 38 38 35 35
100 95 96 83 79 74 62 55 53 52 47 51 47 41 47 46 34 27 20 13 11 10 10 8 6 5 6 6 6 7 9 9 10 11 11 16 21 23 28 33 38 35 38 40 44 43 44 44 43 43 41 48 43 38
78 77 68 57 61 71 75 66 47 53 52 50 61 56 47 33 26 19 13 11 10 10 8 6 5 5 6 6 7 8 9 10 11 11 12 16 23 25 28 34 38 43 38 36 43 47 42 42 44 45 44 44 43 41
64 69 72 71 72 72 61 58 57 52 59 61 57 39 29 26 19 13 11 10 10 8 6 5 5 6 6 7 7 9 10 11 12 12 13 17 23 27 29 34 38 50 47 42 42 50 52 49 48 45 43 43 44 43
78 72 80 72 63 59 58 60 67 61 58 46 37 30 24 18 14 11 10 10 8 6 5 5 6 6 6 8 8 9 11 12 14 14 14 17 21 26 31 36 40 45 52 50 46 52 56 54 52 50 48 44 42 41
78 74 73 75 71 63 65 65 57 51 47 38 31 22 17 13 11 10 10 8 6 5 5 5 5 7 7 8 10 11 12 13 14 15 15 17 20 25 32 36 40 43 49 52 50 51 55 59 56 53 53 56 52 49
88 86 80 71 70 69 58 50 49 51 39 32 23 16 12 11 10 10 9 6 5 5 5 5 6 7 8 10 10 11 12 13 14 15 16 17 19 23 28 34 40 42 45 53 54 55 56 56 56 57 55 52 50 49
88 80 72 67 57 51 54 50 51 44 34 24 16 12 11 11 11 9 6 5 6 5 5 6 8 9 9 9 9 10 10 12 14 15 17 18 19 22 26 30 35 40 42 47 54 58 59 58 58 59 59 58 55 53
64 62 56 53 56 56 51 52 41 30 21 15 12 11 11 11 10 7 6 6 6 6 7 7 8 9 8 8 8 9 10 11 13 15 16 18 19 21 24 26 29 36 39 43 49 53 54 55 57 58 56 55 56 55
57 55 60 59 55 54 53 40 27 18 14 12 12 11 11 10 8 6 6 6 6 7 7 8 8 8 8 8 9 9 9 10 12 14 15 17 18 20 21 24 27 30 36 39 44 49 54 55 56 56 55 54 52 52
63 67 61 56 59 50 36 20 14 12 12 12 11 11 10 8 7 6 6 6 7 8 8 8 8 8 8 8 8 9 9 10 11 13 15 16 16 17 19 21 23 26 28 33 39 45 50 52 53 54 53 53 53 55
65 62 62 59 42 26 14 12 12 12 12 11 12 11 9 7 7 7 7 8 8 9 9 9 8 8 8 8 8 9 9 9 10 12 13 15 15 15 17 19 20 21 23 27 31 36 39 44 49 51 52 51 51 51
66 68 53 28 15 12 13 13 13 11 12 12 11 10 7 7 7 7 8 8 8 9 10 9 9 8 8 8 9 9 9 9 10 10 12 13 14 15 16 17 18 19 21 23 28 31 35 38 41 43 43 42 42 42
56 27 15 13 12 12 13 13 12 11 12 13 9 8 8 7 8 9 8 9 9 10 10 9 9 9 9 9 9 8 9 9 10 10 10 11 12 14 14 14 15 17 18 20 23 27 32 34 35 36 37 37 36 37
16 13 12 12 12 13 12 12 12 12 12 11 8 8 7 8 9 8 8 9 10 11 11 10 10 9 9 9 9 9 9 9 9 10 10 10 11 12 12 13 14 16 18 19 22 30 32 31 30 31 30 30 29 27

GFSWCAN_250_rhum_240.txt.gz
RH
100 100 100 100 100 100 100 100 96 61 78 89 66 97 100 100 100 66 50 60 70 100 95 96 89 81 67 83 72 60 59 52 46 39 32 22 12 10 8 5 4 4 5 4 4 5 6 6 7 6 6 6 6 7
100 100 100 100 100 100 100 100 100 87 66 74 77 95 100 100 73 54 53 59 88 100 99 87 88 78 77 77 67 55 55 45 41 40 29 15 10 9 7 5 5 6 5 5 6 6 6 7 8 7 6 7 6 6
100 100 100 100 100 100 100 100 100 100 100 100 100 77 85 93 54 61 78 92 100 100 91 89 91 69 72 65 49 49 51 47 38 29 20 12 9 9 6 5 6 7 6 7 6 8 8 7 7 7 7 6 7 7
100 100 100 100 100 100 100 100 100 100 100 100 100 71 52 48 63 64 96 100 100 100 95 77 77 69 59 45 43 52 45 39 36 25 14 10 9 7 6 6 7 6 5 5 10 11 12 11 8 7 6 5 6 7
100 100 100 100 100 100 100 100 100 100 100 100 100 78 48 92 69 96 100 100 100 81 84 85 74 59 45 46 50 48 40 40 27 18 12 10 9 6 6 7 9 7 7 6 7 6 9 10 12 12 10 6 5 5
100 100 100 100 100 100 100 100 100 100 100 100 100 90 86 72 87 100 100 100 78 95 72 81 62 50 56 44 54 38 42 32 21 14 11 10 8 6 6 8 9 9 11 10 11 10 10 10 10 11 11 10 7 6
100 100 100 100 100 100 100 99 100 100 100 100 100 93 100 99 82 94 100 87 93 93 76 62 65 66 48 60 39 43 36 25 16 12 10 9 7 6 7 8 8 10 10 11 11 12 12 11 10 10 11 10 9 8
100 100 100 100 100 100 100 100 100 100 100 100 100 99 100 90 72 89 83 94 99 83 78 71 61 63 54 40 42 42 28 19 14 11 10 8 6 6 8 8 8 11 10 12 11 10 12 13 11 11 10 9 10 10
100 100 100 100 100 100 100 100 100 100 100 100 96 100 93 91 94 88 78 92 80 73 71 58 66 58 51 40 41 29 21 16 11 10 9 7 6 7 8 8 9 11 11 11 11 11 9 8 8 10 12 11 10 10
100 100 100 100 100 100 100 100 100 100 100 82 100 100 100 98 100 89 95 92 83 76 64 59 57 52 41 38 31 24 17 12 10 10 8 7 6 8 10 9 11 13 14 14 17 22 25 24 22 20 14 12 11 12
100 100 100 100 100 100 100 100 100 100 95 100 100 98 98 90 91 90 94 95 73 70 61 62 50 46 37 32 25 18 13 10 10 9 7 6 7 8 9 10 14 16 13 12 14 17 18 18 19 18 16 14 13 12
89 100 100 100 100 100 100 100 100 100 92 100 100 100 94 100 92 91 91 86 77 67 62 54 45 37 32 24 20 14 11 10 10 7 6 6 7 8 10 13 16 16 14 18 23 24 21 18 17 18 17 15 14 13
100 100 100 100 100 100 100 100 100 100 100 100 100 100 99 95 100 93 84 72 74 59 56 42 37 31 24 23 15 11 10 10 7 6 6 7 8 9 10 14 18 17 18 22 24 25 24 23 22 23 22 20 18 15
100 100 100 100 100 100 100 100 100 100 100 100 100 100 100 96 92 86 76 74 60 54 38 38 32 24 24 16 11 10 10 8 6 6 7 8 8 9 11 16 20 18 19 28 26 26 27 28 26 27 24 20 18 16
100 100 100 100 100 100 100 100 100 100 100 100 100 100 97 95 89 69 55 51 42 36 40 34 24 23 16 12 10 10 8 6 6 7 8 8 9 10 12 16 22 22 19 30 29 28 29 29 30 28 26 24 23 20
100 100 100 100 100 100 100 100 100 100 100 100 96 94 86 77 54 46 44 36 39 46 36 25 24 16 12 10 10 8 6 6 7 7 8 9 10 10 13 18 24 26 23 31 32 31 31 33 35 33 29 31 30 27
100 100 100 100 100 100 100 100 100 100 100 97 76 64 55 45 38 41 37 42 46 38 27 26 17 12 10 10 8 6 6 7 7 8 9 10 11 11 14 18 26 28 26 30 32 33 34 36 35 37 39 37 32 28
100 100 100 100 100 100 100 100 100 91 93 78 61 48 43 44 39 40 44 49 39 29 28 19 12 10 10 9 6 6 6 7 7 8 9 11 12 12 16 20 28 28 28 29 34 35 38 39 38 46 46 41 39 37
100 100 100 100 100 100 100 99 86 67 56 46 44 44 45 42 45 46 50 43 34 27 20 12 10 10 10 7 6 6 6 7 8 9 10 12 12 12 17 21 31 29 28 31 36 37 42 41 38 44 45 44 48 47
100 100 100 100 94 88 76 61 60 51 48 49 47 53 46 49 51 50 42 38 27 21 13 10 10 10 8 6 6 6 6 8 9 10 11 13 13 13 18 22 30 33 32 30 34 35 36 41 42 44 46 46 43 41
100 100 96 86 75 68 56 57 53 68 64 64 60 56 50 53 53 46 37 27 21 12 10 10 10 8 6 6 6 7 8 8 9 11 13 14 14 14 18 21 28 36 35 33 36 37 39 40 43 47 47 48 45 42
94 83 74 60 69 86 83 70 56 67 69 66 56 50 57 54 47 36 27 20 11 10 10 10 9 6 6 6 7 8 9 10 11 12 14 15 15 15 18 22 26 34 40 40 37 38 39 43 46 45 47 48 47 44
98 81 84 88 74 74 79 76 78 71 70 60 57 61 54 47 35 27 17 10 10 10 10 9 6 6 6 6 8 9 10 11 12 13 14 16 16 16 17 21 23 30 38 41 41 39 42 44 47 49 48 50 49 50
71 78 87 91 91 86 76 72 71 73 60 63 64 58 48 36 27 14 10 10 10 10 9 6 6 6 6 8 9 10 9 10 11 12 14 16 16 16 18 21 23 28 34 39 44 44 42 42 43 48 52 55 58 59
94 86 88 86 84 78 77 82 76 66 62 61 56 47 37 26 12 10 10 10 10 9 6 6 6 6 8 8 9 9 9 9 11 12 13 15 16 17 18 20 23 26 31 37 40 49 45 42 42 45 47 49 51 52
87 89 85 76 78 85 81 74 62 63 64 54 46 37 21 10 10 10 11 11 10 7 6 6 6 8 8 8 8 8 9 9 10 11 13 14 16 17 18 20 22 24 28 31 37 41 46 46 44 43 43 44 45 47
89 90 90 90 87 69 61 65 70 64 55 47 28 14 10 9 10 10 11 11 8 6 6 7 7 8 8 8 8 9 9 9 10 11 12 14 15 17 18 19 20 22 25 28 31 36 41 45 46 47 49 48 47 47
85 89 87 70 64 65 76 74 64 56 44 22 12 10 9 10 10 11 11 9 7 6 7 7 7 8 8 8 8 8 9 9 10 10 11 12 14 15 16 19 20 22 23 24 26 29 35 41 45 48 50 49 49 50
74 67 65 66 76 80 74 64 55 37 18 12 10 9 10 10 10 12 10 8 7 7 8 7 8 9 8 8 9 9 9 9 10 10 11 12 13 14 15 16 17 19 21 22 23 24 30 36 40 43 47 48 48 49
67 68 75 80 78 69 66 48 26 16 13 10 10 9 10 10 12 10 8 7 7 8 7 8 8 9 8 8 9 9 9 9 10 10 10 11 12 12 13 14 16 18 19 20 20 22 26 33 37 39 43 45 44 42
82 85 84 72 70 62 41 22 16 13 10 9 11 10 10 12 12 8 7 7 7 8 7 8 8 9 9 9 9 9 9 9 9 10 10 10 11 12 12 13 14 16 17 17 19 21 24 30 34 37 40 42 41 39
87 78 72 69 56 32 21 18 13 10 9 10 11 12 12 12 9 7 7 7 9 8 7 8 8 9 9 9 9 10 10 10 10 10 10 10 10 11 12 12 12 13 14 15 17 20 23 27 32 35 37 38 37 35
72 76 62 49 26 21 17 12 11 10 10 10 11 14 12 8 8 7 7 8 9 8 8 8 8 9 10 9 9 10 10 10 10 10 10 9 10 10 10 10 11 12 14 15 16 17 19 25 30 31 31 31 31 30

GFSWCAN_250_rhum_243.txt.gz
RH
99 97 100 100 100 100 100 94 75 97 100 89 95 100 100 80 91 90 96 100 100 100 100 99 100 100 100 77 67 60 53 52 47 42 43 43 32 20 11 10 8 5 5 5 7 6 5 6 8 9 8 7 7 7
100 100 100 100 100 100 100 77 89 96 96 99 100 94 94 99 92 92 100 100 100 100 99 100 100 100 99 64 70 63 45 55 44 46 42 38 26 14 10 10 8 5 5 6 7 8 9 7 7 8 8 8 7 7
100 100 100 100 100 100 100 64 88 100 100 100 96 100 100 100 100 100 100 99 100 100 100 100 98 88 90 84 64 57 50 42 41 51 43 31 20 11 10 9 7 5 5 7 6 10 13 9 8 7 6 8 10 8
100 100 100 100 100 100 100 100 100 100 100 99 99 98 100 93 100 100 100 97 100 100 100 96 93 85 76 61 70 52 48 49 54 41 34 22 14 10 10 8 6 6 6 6 7 8 9 12 12 10 8 7 6 10
96 100 100 100 100 100 100 100 99 100 100 100 100 100 100 100 100 100 84 98 100 84 98 71 76 71 64 65 56 65 50 58 39 34 25 17 11 10 9 7 7 7 7 7 9 9 9 8 10 11 10 9 8 7
75 73 100 100 100 92 100 100 100 100 100 100 100 100 100 100 100 100 89 95 73 75 77 87 79 66 71 66 69 52 53 38 34 28 20 13 10 10 8 7 8 8 8 9 12 11 9 9 10 11 10 10 9 8
95 69 97 72 54 84 98 100 100 100 100 100 100 100 100 100 99 87 93 96 92 97 83 93 82 80 73 74 61 43 38 35 29 23 14 11 10 8 7 7 8 8 8 11 12 10 16 15 14 14 13 12 10 9
98 96 85 82 91 89 75 100 100 69 100 100 100 100 100 100 78 82 95 86 73 90 92 80 86 78 84 59 40 38 38 30 28 17 12 10 10 7 7 8 8 8 9 13 12 14 13 15 14 14 14 12 10 9
76 95 100 100 100 100 100 100 100 100 100 100 100 100 90 91 81 91 98 84 87 96 94 85 88 77 56 42 34 37 35 26 23 14 11 10 8 7 7 8 8 9 12 16 15 14 19 18 20 21 20 18 14 12
98 78 100 100 100 100 100 100 100 100 100 100 100 100 100 91 100 96 94 100 94 98 80 90 83 58 42 35 37 35 29 27 18 12 11 10 6 7 8 8 8 9 15 20 18 28 32 28 22 22 18 16 16 13
82 99 100 100 100 100 100 100 100 100 100 100 100 100 98 96 96 92 96 99 89 90 86 75 54 39 36 39 37 31 26 22 13 11 11 8 7 8 8 9 9 10 17 16 19 28 26 21 19 19 18 16 15 13
100 100 100 100 100 100 100 100 100 100 99 96 100 96 96 100 100 100 99 86 85 76 70 52 40 36 37 39 31 27 26 15 11 11 9 7 8 8 9 10 10 13 20 19 26 28 26 24 22 24 21 19 17 15
100 100 100 100 100 100 100 100 100 100 100 99 92 100 100 100 100 96 77 86 69 66 52 42 37 38 42 33 28 26 16 11 11 10 7 8 8 9 10 11 11 15 20 21 27 26 26 24 25 25 25 22 20 20
100 100 100 100 100 100 100 100 100 100 100 100 100 100 100 100 100 91 89 79 69 52 41 37 36 40 37 28 26 17 11 11 10 8 7 8 9 10 11 12 12 18 24 23 31 28 28 26 27 27 26 22 23 23
100 100 100 100 100 100 100 100 100 100 100 100 100 100 100 91 90 90 85 68 51 42 39 38 38 35 29 28 19 11 11 11 9 7 7 8 9 11 12 13 14 20 27 26 30 30 32 32 34 34 28 28 29 30
100 100 100 100 100 100 100 100 100 100 100 100 100 100 91 97 96 82 57 44 41 40 40 38 36 31 28 20 11 11 11 10 7 7 8 9 10 11 12 13 16 23 29 29 31 34 37 39 44 43 36 35 38 40
100 100 100 100 100 100 98 97 100 100 100 100 96 92 93 86 68 51 42 40 40 44 41 38 31 28 21 11 10 10 10 7 7 7 8 10 11 12 13 13 17 24 31 31 32 36 40 41 45 46 42 44 42 39
74 93 100 100 100 100 93 93 100 100 100 100 94 89 82 66 50 42 41 44 46 44 36 35 29 22 10 10 10 10 7 7 7 8 10 11 12 12 13 13 17 24 32 33 34 38 42 43 43 41 43 48 43 39
100 100 100 100 100 100 100 100 100 100 97 90 89 77 56 46 45 43 46 48 46 41 39 31 20 10 10 10 10 7 6 7 7 9 10 12 13 14 14 14 17 23 31 35 35 34 41 45 48 46 45 46 47 45
100 100 100 100 100 100 100 100 91 89 92 80 60 51 48 49 49 50 52 50 44 41 32 20 9 10 10 10 8 6 6 7 9 11 12 13 14 15 15 14 16 23 29 36 37 35 36 46 47 48 46 47 49 48
100 100 100 100 100 100 91 93 95 87 57 49 48 56 54 53 54 57 55 52 44 30 20 9 9 10 10 8 6 6 6 8 10 12 13 14 15 16 16 15 16 21 28 36 40 35 36 43 47 44 46 48 48 48
100 100 100 100 100 99 96 85 58 50 54 59 66 60 58 61 62 62 55 43 29 18 9 9 10 10 9 6 6 6 8 9 11 12 12 12 14 16 16 16 16 20 25 34 39 42 39 41 44 45 44 46 48 49
100 100 100 100 100 89 70 60 61 63 70 69 63 63 66 66 64 56 40 29 17 9 8 9 9 10 7 6 7 8 9 10 11 11 11 12 13 15 16 17 17 19 23 29 39 41 43 42 43 44 44 44 49 53
100 100 86 78 78 76 67 62 67 70 68 68 72 74 70 63 56 42 30 17 9 9 9 9 10 7 6 7 8 9 10 10 9 10 10 11 13 14 16 18 18 19 22 27 34 40 44 44 42 41 42 44 48 52
99 98 95 84 68 67 75 73 72 74 82 78 72 64 66 58 44 29 16 10 9 9 9 10 8 6 7 8 8 10 10 10 9 10 10 11 12 14 16 17 18 19 20 24 30 37 42 46 45 42 40 39 40 42
90 90 86 72 68 68 70 80 83 81 75 67 70 74 58 42 28 15 10 9 10 9 10 9 7 6 8 8 9 10 10 9 9 10 10 10 12 13 15 17 18 18 20 22 26 30 37 42 47 47 43 40 39 40
83 69 65 71 79 89 88 86 76 73 67 80 77 56 41 27 14 10 9 10 10 10 10 7 6 6 7 8 10 10 9 9 9 9 10 10 10 12 14 15 16 18 19 20 24 26 30 38 45 48 50 50 49 46
73 78 80 92 95 86 82 75 69 74 84 77 58 44 25 14 11 9 10 10 10 10 8 7 6 7 7 8 10 10 10 9 9 9 10 10 10 11 12 14 14 16 18 19 21 24 25 30 38 44 48 51 49 46
76 81 84 85 84 77 74 71 87 80 72 60 48 24 13 11 10 10 10 10 10 8 7 7 7 8 8 9 10 10 10 10 9 9 10 10 10 11 11 13 13 14 16 18 19 21 23 23 29 40 46 46 46 46
78 88 88 83 78 75 86 89 82 78 64 51 25 15 12 9 10 10 10 10 10 8 7 7 8 8 8 9 10 10 10 10 10 9 9 9 10 10 11 12 12 13 14 16 17 18 19 20 23 30 35 38 41 42
85 85 80 77 80 93 93 89 83 69 43 21 15 13 10 10 9 11 12 10 8 7 7 7 8 7 8 9 9 10 10 10 10 10 10 9 9 10 10 11 11 12 13 13 14 15 16 18 20 24 28 32 36 40
81 80 85 88 92 95 91 92 74 36 19 14 11 10 10 10 10 11 11 8 7 7 7 8 7 7 8 8 9 10 10 10 10 10 10 10 9 10 10 10 10 11 12 12 12 13 14 16 18 22 25 28 32 35
89 92 94 97 94 87 88 55 28 21 14 11 9 10 10 10 12 10 9 8 7 7 8 7 7 7 8 8 9 10 10 10 10 10 10 10 10 10 10 10 10 10 10 11 11 12 13 15 15 18 22 24 27 28